ZHEDA PIXING 1C

Satellite information

Favourite Embed

Satellite Type and Status

PAYLOADIN ORBIT

Key statistics

Satellite ZHEDA PIXING 1C at a glance.

Uptime

5562

Days in orbit

Revolutions

≈ 14.9

Per day

Orbit

SSO

Sun Synchronous Orbit

Inclination

98.0

Latest

Satellite identification and parameters

Extended collection of information and parameters for ZHEDA PIXING 1C.

Object identification

Identified? True

Debris? False

Object name: ZHEDA PIXING 1C

International designator: 2010-047C

Object number (NORAD): 37167

Object ID (CCSDS): 37167

Country: PEOPLES REPUBLIC OF CHINA (PRC)

Current information (Y/N): Y

RCS size: MEDIUM

Orbital parameters

Period: 96.641 minutes

Inclination: 97.9576 deg

SMA: 6975.906 km

Apoapsis: 611.269 km

Periapsis: 584.274 km

RAAN: 322.6286 deg

Eccentricy: 0.0019349

Argument of periapsis: 174.2497 deg

Mean anomaly: 185.8946 deg

Mean motion: 14.90053275 rev/day

Mean motion (dot): 0.00002434 rev/day2

B* drag term: 0.00025722274 1/REarth

Two-line elements (TLE)

Creation date: Dec. 14, 2025, 3:07 a.m.

Reference frame: TEME

Reference center: EARTH

Epoch: Dec. 13, 2025, 4:14 p.m. UTC

TLE line 0: 0 ZHEDA PIXING 1C

TLE line 1: 1 37167U 10047C 25347.67708072 .00002434 00000-0 25722-3 0 9998

TLE line 2: 2 37167 97.9576 322.6286 0019349 174.2497 185.8946 14.90053275822793

Live tracking on map

Real-time ground track for satellite ZHEDA PIXING 1C.

In-orbit conjunctions

There are no conjunctions computed for ZHEDA PIXING 1C, at the moment. Check back to stay up to date, as we update our databases every day.

Go to all conjunctions

Associated space launch

ZHEDA PIXING 1C was lifted into orbit during the mission ‘Long March 2D | Yaogan-11, Zheda Pixing 1B & Zheda Pixing 1C’, on board a Long March 2D space rocket.

The launch took place on Sept. 22, 2010, 2:42 a.m. from Launch Area 94 (SLS-2 / 603).

For more information about the launch, click the button.

Launch to space Long March 2D | Yaogan-11, Zheda Pixing 1B & Zheda Pixing 1C
Long March 2D | Yaogan-11, Zheda Pixing 1B & Zheda Pixing 1C

Agency: N/A

Status: Launch Successful

Launch date: Sept. 22, 2010, 2:42 a.m. UTC

Rocket: Long March 2D

Launch pad: Launch Area 94 (SLS-2 / 603)

Location: Jiuquan Satellite Launch Center, People's Republic of China

...

Latest news about this satellite

There are no fresh news available about this satellite. Check back as we update our databases every day.


Newsletter sign-up

Weekly statistics, charts and insights to help you stay on top of the space industry.